JBU4586 RPVM-RPVE

Flight info

Callsign JBU4586
Flight time 0h 27m
Altitude 24000
Route PARAO4P PARAO W6A ROX TR15 KLO KLO7A
Aircraft A20N/M-SDE2E3FGHIRWXY/LB1

Departure

Time 2026-04-22 16:54
Airport Mactan Cebu International Airport (RPVM)

Arrival

Time 2026-04-22 17:22
Airport Godofredo P. Ramos Airport (RPVE)
Time Latitude Longitude Altitude Speed Heading
2026-04-22 16:09 10.31101 123.97774 38 ft 0 kts 44°
2026-04-22 16:46 10.31096 123.97769 37 ft 4 kts 43°
2026-04-22 16:46 10.31077 123.97750 38 ft 4 kts 44°
2026-04-22 16:46 10.31064 123.97737 36 ft 2 kts 65°
2026-04-22 16:46 10.31063 123.97726 37 ft 2 kts 124°
2026-04-22 16:47 10.31069 123.97718 38 ft 2 kts 134°
2026-04-22 16:47 10.31072 123.97716 38 ft 0 kts 135°
2026-04-22 16:50 10.31059 123.97728 37 ft 6 kts 135°
2026-04-22 16:50 10.30994 123.97762 38 ft 15 kts 188°
2026-04-22 16:51 10.30891 123.97674 37 ft 24 kts 225°
2026-04-22 16:51 10.30754 123.97536 38 ft 31 kts 224°
2026-04-22 16:51 10.30584 123.97364 38 ft 37 kts 226°
2026-04-22 16:51 10.30387 123.97164 39 ft 43 kts 224°
2026-04-22 16:52 10.30164 123.96941 38 ft 47 kts 225°
2026-04-22 16:52 10.29969 123.96745 38 ft 24 kts 225°
2026-04-22 16:52 10.29836 123.96753 37 ft 23 kts 139°
2026-04-22 16:52 10.29720 123.96881 33 ft 25 kts 111°
2026-04-22 16:53 10.29766 123.96961 33 ft 11 kts 28°
2026-04-22 16:53 10.29829 123.97018 32 ft 15 kts 45°
2026-04-22 16:53 10.30067 123.97251 32 ft 81 kts 43°
2026-04-22 16:53 10.30604 123.97781 35 ft 133 kts 45°
2026-04-22 16:54 10.31362 123.98537 52 ft 171 kts 43°
2026-04-22 16:54 10.32246 123.99435 306 ft 188 kts 44°
2026-04-22 16:54 10.33191 124.00393 870 ft 189 kts 41°
2026-04-22 16:54 10.34131 124.01260 1772 ft 179 kts 42°
2026-04-22 16:55 10.35108 124.02107 2373 ft 194 kts 33°
2026-04-22 16:55 10.39630 124.01705 3998 ft 270 kts 327°
2026-04-22 16:55 10.48904 123.94104 9288 ft 292 kts 326°
2026-04-22 16:55 10.56057 123.88937 11201 ft 348 kts 324°
2026-04-22 16:56 10.62727 123.81916 13892 ft 360 kts 304°
2026-04-22 16:56 10.68751 123.73256 16229 ft 376 kts 304°
2026-04-22 16:56 10.75024 123.64480 18319 ft 391 kts 305°
2026-04-22 16:56 10.81522 123.55425 20125 ft 403 kts 305°
2026-04-22 16:57 10.88234 123.46063 21856 ft 415 kts 305°
2026-04-22 16:57 10.95772 123.36953 23515 ft 429 kts 316°
2026-04-22 16:57 11.04573 123.28674 23890 ft 432 kts 316°
2026-04-22 16:57 11.12114 123.21450 23890 ft 431 kts 316°
2026-04-22 16:58 11.13558 123.20059 23889 ft 431 kts 316°
2026-04-22 16:58 11.16469 123.17254 23890 ft 431 kts 316°
2026-04-22 16:58 11.18646 123.15156 23889 ft 431 kts 316°
2026-04-22 16:58 11.20825 123.13055 23889 ft 431 kts 315°
2026-04-22 16:59 11.23001 123.10957 23887 ft 431 kts 315°
2026-04-22 16:59 11.25177 123.08859 23893 ft 431 kts 315°
2026-04-22 16:59 11.27355 123.06758 23894 ft 431 kts 315°
2026-04-22 16:59 11.29530 123.04661 23893 ft 431 kts 315°
2026-04-22 17:00 11.31704 123.02563 23894 ft 431 kts 315°
2026-04-22 17:00 11.36025 122.98393 23893 ft 430 kts 315°
2026-04-22 17:00 11.38198 122.96295 23891 ft 430 kts 315°
2026-04-22 17:01 11.40373 122.94195 23889 ft 431 kts 315°
2026-04-22 17:01 11.42547 122.92096 23890 ft 431 kts 315°
2026-04-22 17:01 11.44721 122.89996 23894 ft 431 kts 315°
2026-04-22 17:01 11.46895 122.87896 23891 ft 431 kts 315°
2026-04-22 17:02 11.49069 122.85797 23890 ft 430 kts 315°
2026-04-22 17:02 11.51243 122.83698 23895 ft 431 kts 315°
2026-04-22 17:02 11.53417 122.81597 23896 ft 431 kts 315°
2026-04-22 17:02 11.55592 122.79496 23896 ft 431 kts 315°
2026-04-22 17:03 11.57702 122.77335 23892 ft 429 kts 308°
2026-04-22 17:03 11.59374 122.74829 23892 ft 427 kts 296°
2026-04-22 17:03 11.60505 122.72041 23892 ft 425 kts 284°
2026-04-22 17:03 11.61183 122.69111 23896 ft 424 kts 281°
2026-04-22 17:04 11.61801 122.66172 23894 ft 424 kts 281°
2026-04-22 17:04 11.62438 122.63245 23779 ft 424 kts 282°
2026-04-22 17:04 11.63105 122.60307 23429 ft 425 kts 282°
2026-04-22 17:04 11.63790 122.57368 22778 ft 426 kts 282°
2026-04-22 17:05 11.64479 122.54443 22209 ft 422 kts 283°
2026-04-22 17:05 11.65164 122.51548 21627 ft 418 kts 283°
2026-04-22 17:05 11.65842 122.48681 21050 ft 413 kts 283°
2026-04-22 17:05 11.66501 122.45886 20462 ft 410 kts 283°
2026-04-22 17:06 11.67174 122.43025 19891 ft 406 kts 283°
2026-04-22 17:06 11.67923 122.40254 19310 ft 404 kts 290°
2026-04-22 17:06 11.69078 122.37653 18719 ft 403 kts 300°
2026-04-22 17:06 11.70636 122.35293 18142 ft 401 kts 309°
2026-04-22 17:07 11.72413 122.33127 17564 ft 396 kts 310°
2026-04-22 17:07 11.73636 122.31656 17174 ft 393 kts 310°
2026-04-22 17:07 11.74320 122.30829 16948 ft 392 kts 310°
2026-04-22 17:07 11.75041 122.29950 16720 ft 390 kts 310°
2026-04-22 17:08 11.76759 122.27827 16160 ft 386 kts 309°
2026-04-22 17:08 11.78447 122.25701 15553 ft 384 kts 308°
2026-04-22 17:08 11.80105 122.23587 15023 ft 380 kts 308°
2026-04-22 17:08 11.81749 122.21477 14473 ft 377 kts 308°
2026-04-22 17:09 11.83377 122.19384 13913 ft 375 kts 308°
2026-04-22 17:09 11.84980 122.17321 13313 ft 373 kts 308°
2026-04-22 17:09 11.86042 122.15952 12975 ft 370 kts 308°
2026-04-22 17:09 11.88167 122.13218 12281 ft 364 kts 308°
2026-04-22 17:10 11.89737 122.11201 11716 ft 362 kts 308°
2026-04-22 17:10 11.91296 122.09198 11214 ft 358 kts 308°
2026-04-22 17:10 11.92840 122.07215 10694 ft 356 kts 309°
2026-04-22 17:10 11.94386 122.05232 10153 ft 355 kts 309°
2026-04-22 17:11 11.95890 122.03302 9999 ft 341 kts 309°
2026-04-22 17:11 11.97336 122.01448 9865 ft 327 kts 309°
2026-04-22 17:11 11.98721 121.99673 9759 ft 314 kts 309°
2026-04-22 17:11 12.00056 121.97962 9615 ft 301 kts 309°
2026-04-22 17:12 12.01342 121.96314 9130 ft 295 kts 309°
2026-04-22 17:12 12.02183 121.95233 8885 ft 288 kts 309°
2026-04-22 17:12 12.03381 121.92914 8466 ft 275 kts 280°
2026-04-22 17:12 12.03432 121.91627 8139 ft 272 kts 261°
2026-04-22 17:13 12.02405 121.89297 7683 ft 276 kts 233°
2026-04-22 17:13 12.01652 121.88256 7430 ft 274 kts 232°
2026-04-22 17:13 12.00523 121.86710 7075 ft 269 kts 233°
2026-04-22 17:13 11.99410 121.85150 6721 ft 275 kts 234°
2026-04-22 17:14 11.98303 121.83558 6448 ft 272 kts 234°
2026-04-22 17:14 11.97227 121.81983 6181 ft 269 kts 235°
2026-04-22 17:14 11.96166 121.80420 5918 ft 265 kts 235°
2026-04-22 17:14 11.95142 121.78905 5819 ft 254 kts 235°
2026-04-22 17:15 11.94475 121.77918 5745 ft 246 kts 235°
2026-04-22 17:15 11.93212 121.76052 5290 ft 240 kts 235°
2026-04-22 17:15 11.92246 121.74666 4863 ft 239 kts 227°
2026-04-22 17:15 11.90918 121.73697 4397 ft 234 kts 196°
2026-04-22 17:16 11.89351 121.73537 3960 ft 223 kts 164°
2026-04-22 17:16 11.87999 121.74183 3750 ft 209 kts 140°
2026-04-22 17:16 11.86850 121.75032 3765 ft 203 kts 140°
2026-04-22 17:16 11.85641 121.75909 4015 ft 226 kts 144°
2026-04-22 17:17 11.84463 121.76925 3833 ft 217 kts 121°
2026-04-22 17:17 11.83990 121.78303 3660 ft 199 kts 89°
2026-04-22 17:17 11.84342 121.79599 3417 ft 194 kts 63°
2026-04-22 17:17 11.85016 121.80783 3302 ft 181 kts 61°
2026-04-22 17:18 11.85620 121.81806 3140 ft 158 kts 62°
2026-04-22 17:18 11.86131 121.82716 2953 ft 140 kts 64°
2026-04-22 17:18 11.86593 121.83601 2777 ft 142 kts 65°
2026-04-22 17:18 11.87037 121.84485 2535 ft 139 kts 67°
2026-04-22 17:19 11.87902 121.86249 1886 ft 140 kts 66°
2026-04-22 17:19 11.88782 121.88044 1992 ft 141 kts 66°
2026-04-22 17:20 11.89612 121.89714 1998 ft 132 kts 66°
2026-04-22 17:20 11.90443 121.91337 1777 ft 127 kts 64°
2026-04-22 17:21 11.90897 121.92205 1116 ft 153 kts 65°
2026-04-22 17:21 11.91818 121.94220 337 ft 151 kts 62°
2026-04-22 17:22 11.92725 121.95954 34 ft 81 kts 63°
2026-04-22 17:22 11.92797 121.96093 34 ft 0 kts 62°
2026-04-22 17:22 11.92777 121.96129 34 ft 9 kts 139°
2026-04-22 17:23 11.92723 121.96161 40 ft 9 kts 153°
2026-04-22 17:23 11.92672 121.96272 41 ft 12 kts 62°
2026-04-22 17:23 11.92704 121.96342 42 ft 4 kts 86°
2026-04-22 17:24 11.92675 121.96369 42 ft 4 kts 148°
2026-04-22 17:24 11.92674 121.96369 42 ft 0 kts 148°